Theta_e
309 309 311 312 311 312 311 308 308 310 308 307 309 310 309 311 314 310 320 323 327 330 329 329 329 328 327 324 322 324 333 336 329 324 325 328 333 330 329 332 333 332 330 329 331
309 309 311 312 311 311 312 311 309 308 307 307 306 308 313 314 311 314 318 323 326 329 329 329 329 327 328 327 326 331 335 330 316 315 320 323 332 332 333 334 335 333 328 330 330
308 309 310 312 311 311 312 310 310 309 310 310 310 311 312 311 315 317 318 321 324 327 329 329 327 328 329 328 328 330 332 324 318 317 318 325 331 329 332 334 333 334 330 329 329
307 308 309 309 310 311 312 312 311 311 312 313 312 313 311 313 320 314 316 321 324 326 329 327 328 329 330 331 325 331 323 321 322 321 321 329 328 328 327 327 327 330 328 327 327
307 306 306 306 308 311 311 311 312 311 313 313 313 312 311 312 315 314 315 320 324 324 329 329 329 329 331 328 325 324 323 322 323 321 317 322 326 326 326 328 328 329 328 327 326
306 306 306 306 306 307 309 309 312 313 312 311 313 312 310 312 313 314 315 320 323 323 329 328 328 327 328 327 329 319 321 323 324 322 318 323 324 325 325 328 329 330 328 326 326
305 305 305 306 307 307 309 310 312 312 313 314 314 310 310 311 312 314 317 319 321 323 328 328 327 327 325 326 318 320 326 324 325 322 320 315 327 323 325 328 330 329 327 327 327
304 305 305 306 307 308 310 311 311 312 312 314 314 314 315 313 313 315 318 320 321 323 326 325 325 319 323 320 323 325 325 334 324 323 319 317 327 324 324 327 329 327 326 326 327
301 304 305 306 307 308 310 311 311 311 313 312 313 314 316 312 312 315 316 319 320 321 322 322 322 320 321 327 329 327 333 332 326 322 322 318 320 318 323 326 327 325 326 326 325
298 302 305 306 307 306 309 311 311 311 311 311 311 314 312 312 310 312 315 318 321 321 324 325 323 325 326 332 337 332 332 330 327 323 322 324 320 315 315 322 324 323 323 324 325
295 298 303 306 307 307 310 311 308 310 310 313 313 312 312 310 311 313 314 316 320 323 328 324 329 332 330 330 327 328 332 330 323 323 325 325 318 316 313 312 314 314 318 321 316
294 295 299 305 308 308 307 305 304 304 313 312 312 311 311 311 315 314 313 321 323 326 324 325 333 324 327 329 329 331 332 329 325 326 324 320 318 316 314 313 313 313 312 312 312
294 294 296 305 309 308 304 303 304 306 313 313 312 312 310 313 316 315 313 318 321 322 322 328 322 320 329 330 332 332 332 327 326 323 321 319 323 318 311 310 310 309 310 310 311
294 294 296 306 307 306 303 303 303 305 314 314 314 311 311 314 317 313 313 316 318 321 319 319 318 325 329 326 329 333 325 327 326 328 329 322 333 321 313 311 311 311 310 310 310
294 294 296 306 306 303 303 302 303 305 310 311 313 310 311 315 315 315 313 315 318 317 319 316 318 322 324 323 323 326 324 325 327 327 325 324 325 322 313 312 312 311 310 309 308
293 294 294 304 306 302 302 303 304 304 307 313 312 314 316 315 316 315 316 313 314 316 315 315 314 315 320 319 321 319 319 318 318 323 329 326 327 325 313 314 311 312 310 309 307
293 294 294 301 301 301 303 299 298 307 305 315 314 315 314 315 316 316 317 317 320 321 319 315 314 313 312 319 318 320 324 324 327 327 329 319 323 328 312 309 310 312 310 308 306
295 294 296 298 302 301 301 297 295 296 306 310 312 314 316 312 315 316 317 319 315 316 319 320 320 315 312 315 321 319 320 326 331 325 321 317 324 324 309 308 310 310 308 306 303
296 296 297 300 299 303 298 292 294 299 306 309 311 311 316 313 315 316 315 318 316 314 320 318 317 312 311 311 315 316 321 314 314 310 312 313 308 307 307 309 309 309 308 305 302
294 296 296 297 299 300 296 299 299 302 306 307 310 310 313 314 316 317 317 312 313 311 310 315 318 313 313 311 313 315 313 317 317 320 321 310 308 310 309 310 310 309 307 304 302
295 293 297 298 304 297 295 291 301 302 306 307 308 309 312 314 314 316 316 312 312 310 309 314 315 314 313 315 316 315 316 315 315 317 324 323 313 306 309 309 311 309 306 304 302
296 302 298 302 294 291 291 290 300 303 305 306 306 306 308 308 310 310 314 311 310 310 315 312 314 316 316 308 311 312 314 315 319 313 312 309 306 304 307 308 310 308 305 302 301
298 299 298 300 294 290 289 296 299 304 305 306 306 305 305 305 304 306 305 304 306 310 311 307 306 314 316 312 304 309 310 312 309 307 311 310 306 305 304 306 307 307 303 302 300
298 302 298 297 291 293 292 295 298 300 303 305 304 305 305 305 304 305 307 305 305 305 305 305 305 312 316 313 308 308 308 309 310 311 309 308 306 305 307 306 305 305 304 302 300
297 301 298 302 295 295 296 295 298 300 301 302 304 304 303 300 301 305 306 305 305 305 305 303 301 304 306 305 305 307 307 308 311 312 309 308 307 306 305 305 305 305 304 302 300
298 298 295 296 296 296 298 295 298 299 300 304 297 303 302 301 301 303 304 304 303 304 304 302 300 301 298 303 302 303 304 305 306 310 310 310 309 304 303 303 302 303 303 303 302
294 294 299 300 298 296 296 299 299 298 299 300 300 300 301 301 300 300 300 299 300 301 299 298 298 293 294 297 296 299 300 302 304 304 307 310 310 304 303 303 303 302 302 303 302
Wind_Speed
18 19 20 19 18 17 14 11 9 7 10 9 11 12 18 20 16 9 8 6 10 31 30 23 18 15 8 2 2 3 3 1 2 2 4 1 2 2 2 6 2 3 3 10 28
18 20 20 19 17 16 16 12 9 11 14 15 16 17 17 15 11 7 5 10 10 31 30 24 11 12 4 3 2 2 4 3 2 5 3 5 1 5 4 4 2 3 8 26 29
19 20 18 18 17 16 15 14 13 15 18 19 17 20 14 9 2 2 5 8 16 28 28 25 25 8 5 2 2 4 5 3 2 4 5 2 2 0 9 2 5 6 14 18 21
18 18 18 18 17 16 16 15 17 19 21 14 15 13 14 9 7 7 6 12 19 16 20 24 13 8 6 7 0 5 5 2 4 6 5 3 4 2 3 1 3 9 16 14 12
16 18 20 20 17 16 16 17 19 17 7 5 8 18 18 4 4 9 10 4 20 17 21 13 19 8 11 7 5 4 5 3 2 7 8 5 3 3 3 5 5 13 11 12 10
14 18 19 21 20 18 18 19 16 10 6 5 13 20 6 4 9 12 4 11 14 13 13 14 7 4 8 6 3 4 6 2 7 7 7 6 1 1 3 3 7 9 8 8 10
14 17 21 23 21 18 15 15 9 11 8 9 10 14 6 6 14 9 2 7 14 11 6 14 14 3 8 7 3 5 5 2 6 5 6 7 4 2 3 3 7 6 5 5 7
14 17 20 22 20 18 11 10 9 8 10 8 9 8 4 6 15 7 6 1 9 13 15 12 22 5 5 8 4 5 3 6 4 2 2 3 4 1 6 7 6 6 5 6 9
13 16 19 21 21 20 11 8 9 5 5 4 4 4 1 8 0 13 8 2 13 14 15 18 11 4 4 10 4 3 5 11 1 6 2 4 3 1 3 6 6 6 6 7 6
13 15 17 20 21 24 15 10 3 10 5 4 7 1 4 6 9 11 5 1 3 14 11 7 4 3 4 14 18 7 5 7 7 5 2 1 5 3 2 6 7 6 6 5 6
13 14 16 17 17 24 9 4 5 5 12 3 5 1 4 8 4 10 9 6 5 4 8 7 8 19 15 13 6 11 9 8 4 6 4 5 3 2 1 2 3 3 6 6 6
13 14 15 17 13 13 13 4 3 3 2 4 2 1 1 3 4 5 9 3 3 3 4 5 13 5 13 7 8 15 13 6 5 4 3 3 4 1 1 1 2 4 6 7 4
13 13 14 16 6 9 13 6 8 6 2 4 2 3 2 3 3 7 9 4 7 6 7 3 4 4 8 6 14 5 16 8 7 5 2 4 4 4 2 3 1 2 3 4 6
13 12 15 12 2 6 3 8 5 5 3 8 6 3 3 2 4 4 6 4 8 6 5 5 3 5 12 4 4 5 3 9 16 13 4 3 4 6 7 6 5 6 5 6 5
12 12 11 9 3 3 6 7 3 2 3 7 6 5 4 4 0 7 5 5 6 9 3 2 6 7 6 3 2 4 5 9 8 13 5 5 3 2 9 8 9 8 7 6 5
9 11 9 4 4 4 6 3 2 5 1 4 3 5 2 6 2 2 5 4 3 6 10 4 1 4 3 7 6 11 10 8 6 2 5 6 9 4 7 13 5 5 7 7 7
8 9 6 4 1 7 4 2 5 5 2 1 1 3 4 5 4 5 4 4 4 4 4 7 5 4 5 7 5 2 6 2 1 2 3 2 5 9 7 6 9 15 12 9 8
9 9 4 1 4 6 0 5 6 2 4 1 1 4 4 5 3 2 2 2 5 3 3 3 2 2 4 3 2 2 0 4 5 4 2 2 6 5 5 7 9 12 10 8 7
8 6 3 0 3 3 4 4 6 6 4 5 2 3 1 2 1 2 2 1 2 3 3 4 2 2 1 3 2 2 2 2 4 1 2 4 6 7 3 5 8 11 11 10 8
4 4 2 3 2 2 4 4 2 3 1 3 4 3 4 3 2 1 2 2 4 2 1 2 4 2 2 2 5 0 4 4 1 5 4 4 5 6 5 11 12 13 14 10 9
2 3 1 1 1 4 3 6 4 3 2 4 4 4 3 5 3 3 5 0 1 3 3 3 2 2 3 3 5 2 2 2 3 2 3 2 5 2 13 16 19 18 14 12 10
5 1 4 3 3 2 3 5 2 3 0 3 1 3 6 6 4 5 7 4 6 7 6 4 3 3 0 3 4 1 2 3 3 4 3 1 5 3 4 12 14 15 11 8 9
4 1 2 1 2 2 3 3 2 2 3 1 3 3 0 5 1 3 5 2 5 7 7 6 1 3 2 1 1 4 7 6 1 1 5 4 4 4 4 7 8 12 10 12 11
3 2 3 2 2 6 4 2 2 0 2 1 2 2 3 3 2 5 3 1 1 4 2 2 3 4 4 3 4 5 6 8 6 3 3 5 6 4 3 6 7 10 11 12 10
2 3 3 3 3 3 4 4 3 2 1 2 2 4 4 3 2 3 2 2 1 1 2 4 3 2 1 2 0 2 4 7 8 13 8 2 8 5 5 9 14 12 11 11 12
5 4 1 2 3 5 3 6 9 3 6 4 3 4 3 4 5 5 5 3 4 1 4 2 1 2 3 2 2 3 5 7 8 13 10 16 20 8 5 5 7 11 12 15 16
4 3 1 6 4 4 5 6 8 8 4 2 5 3 3 6 3 1 2 4 3 6 3 3 5 3 4 4 4 6 10 17 6 6 12 14 21 6 10 10 12 14 15 18 17
Wind_Direction
357 356 352 352 351 351 335 307 298 279 266 262 271 276 286 290 258 262 252 287 188 179 179 151 153 147 127 74 58 224 78 183 27 103 318 32 114 42 40 107 68 16 127 154 155
358 360 349 350 347 346 339 328 279 300 284 290 280 290 287 239 250 247 249 211 190 168 160 150 150 134 84 111 57 89 151 160 58 345 353 290 210 148 119 118 61 60 69 131 146
358 359 352 350 352 349 337 344 327 304 297 304 289 295 204 209 309 165 251 185 204 166 166 163 144 128 118 110 348 156 175 106 53 351 304 248 131 54 127 206 195 169 147 143 147
357 358 0 352 348 342 337 333 328 317 316 300 294 173 178 167 217 328 316 185 188 175 162 141 145 143 136 151 160 96 33 82 42 325 356 315 117 63 39 344 310 152 153 147 154
2 0 354 345 337 326 332 330 330 325 341 13 153 155 158 60 317 323 311 157 181 203 170 140 160 156 159 133 108 109 165 103 359 0 346 342 16 169 31 354 90 127 144 155 157
358 357 360 357 344 315 325 331 338 355 340 305 154 162 146 96 306 305 250 179 178 219 162 133 168 147 113 148 132 124 115 139 42 8 343 357 350 59 5 85 90 133 144 157 160
350 354 353 354 345 337 337 335 344 358 337 38 116 143 100 197 282 295 110 152 188 197 161 163 176 64 123 111 167 127 97 360 42 6 348 326 272 57 145 122 128 147 158 166 179
344 349 357 356 354 348 342 16 340 327 6 47 105 130 164 245 275 16 55 100 187 199 201 162 156 95 73 105 64 93 52 175 128 112 216 2 288 87 161 144 164 175 192 198 215
344 347 355 358 353 339 308 351 13 31 37 27 42 63 204 293 22 13 10 321 117 140 158 144 114 97 81 134 117 187 184 202 215 172 263 152 280 97 164 171 186 191 200 212 227
344 346 350 353 355 354 317 269 25 31 316 11 36 41 3 354 336 339 310 297 154 126 136 151 125 142 154 179 197 154 146 169 181 197 160 274 272 318 315 186 210 207 214 221 229
338 342 343 351 350 357 10 336 13 356 30 58 311 337 319 327 346 5 350 349 146 180 168 158 175 193 185 183 128 158 160 154 113 159 153 207 232 264 327 108 136 183 200 198 204
334 338 341 345 351 8 34 61 90 304 2 6 358 87 335 7 339 4 343 204 63 79 124 124 191 139 135 130 153 156 161 148 64 112 113 201 229 276 176 204 225 173 164 173 181
337 335 341 343 342 5 52 39 339 347 23 20 352 334 338 24 45 344 345 321 58 56 42 105 93 130 148 124 154 166 172 164 154 135 62 131 277 212 193 130 131 219 197 200 190
346 339 342 356 105 355 28 360 351 359 47 358 354 23 355 359 58 341 334 16 36 65 42 58 1 142 140 169 153 163 110 161 139 148 201 182 249 223 199 207 208 227 207 219 198
346 347 350 21 2 67 327 338 4 346 53 332 317 317 338 45 343 9 355 33 68 47 47 332 28 57 86 114 213 113 149 144 166 158 136 188 263 217 166 213 219 218 211 208 180
343 345 353 0 13 23 341 341 1 44 243 333 301 360 18 10 39 348 24 40 109 78 51 69 34 40 49 43 102 121 91 62 56 93 224 177 208 211 192 210 173 192 198 180 165
329 338 339 352 1 341 343 36 33 99 303 203 72 22 69 10 37 23 20 35 56 89 21 16 11 359 30 85 11 181 131 96 116 198 236 312 210 253 203 226 197 185 182 176 168
314 323 318 294 334 344 165 49 67 235 222 230 134 60 49 355 41 40 75 88 51 73 110 126 166 352 359 21 138 93 31 149 179 194 156 91 235 233 204 204 178 180 166 154 164
306 302 298 174 327 351 72 44 203 217 161 153 68 79 39 338 94 60 61 83 88 46 125 136 91 7 342 5 357 144 114 113 98 20 109 210 276 287 130 147 156 163 162 173 173
329 324 291 317 316 79 72 223 206 218 278 136 168 186 162 188 165 107 185 200 137 110 22 144 108 355 334 87 21 72 132 113 51 149 226 258 268 244 216 185 180 179 182 176 180
52 20 241 323 105 55 162 222 235 232 299 178 206 167 194 169 181 195 168 13 173 103 50 124 86 145 215 183 165 128 136 96 104 155 180 305 258 246 201 188 187 188 186 179 175
105 352 355 158 48 83 159 193 311 260 105 258 197 194 176 164 160 181 189 226 172 139 155 192 118 144 62 76 137 195 176 158 127 214 237 245 275 343 261 191 184 186 178 171 176
124 211 320 193 175 250 291 273 245 216 195 232 234 197 145 169 107 171 159 340 178 173 171 181 183 97 115 155 94 202 193 196 207 128 218 167 263 22 20 159 180 184 174 181 186
107 108 337 47 136 140 157 243 240 255 284 233 279 263 142 140 66 173 137 161 173 184 155 136 156 186 191 150 127 195 188 191 186 174 230 230 289 318 61 180 186 187 186 183 187
117 196 173 214 252 180 151 137 152 201 282 335 322 226 185 125 43 148 112 132 81 176 153 146 171 139 106 93 237 209 197 187 202 225 219 242 228 251 228 200 202 192 180 181 191
136 163 142 183 126 109 198 218 183 165 149 225 181 208 194 159 178 195 142 199 198 64 158 17 167 96 324 348 340 275 244 230 227 240 250 258 269 219 247 141 165 192 190 198 199
145 95 152 157 139 117 220 191 202 150 196 193 197 99 156 223 175 358 100 92 118 147 143 122 134 96 266 353 347 307 219 211 200 211 206 227 240 169 204 204 199 193 193 201 203